Weather History for KRIC - March, 2014

Change the Weather History Date:

Monday, March 3, 2014

  Actual Average Record
Temperature  
Mean Temperature 28 °F 45 °F  
Max Temperature 41 °F 56 °F 79 °F (1974)
Min Temperature 15 °F 34 °F 11 °F (2009)
Degree Days  
Heating Degree Days 37 21  
Month to date heating degree days 76 63  
Since 1 July heating degree days 3029 2999  
Cooling Degree Days 0 0  
Month to date cooling degree days 0 0  
Year to date cooling degree days 0 0  
Moisture  
Dew Point 21 °F    
Average Humidity 70    
Maximum Humidity 86    
Minimum Humidity 54    
Precipitation  
Precipitation 0.50 in 0.12 in 1.90 in (1909)
Month to date precipitation 0.55 0.34  
Year to date precipitation 6.86 6.14  
Snow  
Snow 3.00 in 0.00 in 5.50 in (1960)
Month to date snowfall 3.0 0.1  
Since 1 July snowfall 13.9 9.7  
Snow Depth 1.00 in    
Sea Level Pressure  
Sea Level Pressure 30.15 in    
Wind  
Wind Speed 14 mph (North)    
Max Wind Speed 24 mph    
Max Gust Speed 30 mph    
Visibility 4 miles    
Events Fog , Rain , Snow    
T = Trace of Precipitation, MM = Missing Value Source: NWS Daily Summary

Daily Weather History Graph

Daily Weather History Graph

Search for Another Location

Airport or City:

Trip Planner

Search our weather history database for the weather conditions in past years. The results will help you decide how hot, cold, wet, or windy it might be!

Date:

Astronomy

Mar. 03, 2014 Rise Set
Actual Time 6:37 AM EST 6:05 PM EST
Civil Twilight 6:11 AM EST 6:31 PM EST
Nautical Twilight 5:41 AM EST 7:01 PM EST
Astronomical Twilight 5:11 AM EST 7:31 PM EST
Moon 7:48 AM EST (3/3) 9:01 PM EST (3/3)
Length of Visible Light 12h 19m
Length of Day
11h 27m
Waxing Crescent, 8% of the Moon is Illuminated
Mar 3
Waxing Crescent
Mar 8
First Quarter
Mar 16
Full
Mar 23
Last Quarter
Mar 30
New

Hourly Weather History & Observations

Time (EST) Temp. Windchill Dew Point Humidity Pressure Visibility Wind Dir Wind Speed Gust Speed Precip Events Conditions
12:54 AM 41.0 °F 35.8 °F 37.0 °F 86% 29.98 in 4.0 mi NE 8.1 mph - N/A   Overcast
1:54 AM 39.9 °F 32.9 °F 36.0 °F 86% 29.96 in 4.0 mi NNE 11.5 mph - N/A   Overcast
2:50 AM 39.2 °F 32.5 °F 33.8 °F 81% 29.94 in 5.0 mi NNE 10.4 mph 20.7 mph N/A   Haze
2:54 AM 39.0 °F 32.3 °F 35.1 °F 86% 29.95 in 5.0 mi NNE 10.4 mph 19.6 mph N/A   Overcast
3:10 AM 39.2 °F 32.0 °F 33.8 °F 81% 29.94 in 4.0 mi NNE 11.5 mph - N/A   Haze
3:54 AM 39.0 °F 32.8 °F 34.0 °F 82% 29.99 in 5.0 mi NNE 9.2 mph - N/A   Haze
4:54 AM 37.9 °F 28.9 °F 33.1 °F 83% 29.99 in 7.0 mi NNE 16.1 mph - 0.00 in   Overcast
5:54 AM 36.0 °F 26.7 °F 30.0 °F 79% 30.03 in 10.0 mi NNE 15.0 mph 20.7 mph N/A   Overcast
6:09 AM 35.6 °F 27.1 °F 30.2 °F 81% 30.02 in 7.0 mi NNE 12.7 mph - N/A   Overcast
6:54 AM 36.0 °F 26.7 °F 30.9 °F 82% 30.06 in 7.0 mi North 15.0 mph 18.4 mph 0.00 in Rain Light Rain
7:09 AM 35.6 °F 26.2 °F 30.2 °F 81% 30.05 in 3.0 mi NNE 15.0 mph 21.9 mph 0.00 in Rain Light Rain
7:17 AM 35.6 °F 27.5 °F 30.2 °F 81% 30.06 in 3.0 mi NNE 11.5 mph 20.7 mph 0.00 in Rain Light Rain
7:27 AM 33.8 °F 24.8 °F 30.2 °F 87% 30.07 in 2.5 mi NNE 12.7 mph 20.7 mph 0.02 in Rain Light Rain
7:33 AM 33.8 °F 24.3 °F 30.2 °F 87% 30.07 in 1.5 mi NNE 13.8 mph - 0.03 in   Ice Pellets
10:14 AM 28.4 °F 16.2 °F 24.8 °F 86% 30.13 in 0.2 mi NNE 17.3 mph 24.2 mph 0.05 in Fog , Snow Snow
10:44 AM 26.6 °F 13.8 °F 23.0 °F 86% 30.15 in 0.5 mi NNE 17.3 mph - 0.10 in Fog , Snow Snow
10:54 AM 27.0 °F 14.3 °F 23.0 °F 85% 30.17 in 0.2 mi North 17.3 mph - 0.11 in Fog , Snow Snow
11:01 AM 26.6 °F 15.2 °F 21.2 °F 80% 30.15 in 0.2 mi North 13.8 mph - 0.01 in Fog , Snow Snow
11:54 AM 24.1 °F 10.6 °F 19.9 °F 84% 30.17 in 1.0 mi North 17.3 mph - 0.04 in Snow Snow
12:17 PM 24.8 °F 11.1 °F 19.4 °F 80% 30.16 in 1.0 mi North 18.4 mph 24.2 mph 0.02 in Snow Light Snow
12:37 PM 24.8 °F 11.1 °F 19.4 °F 80% 30.18 in 1.2 mi North 18.4 mph - 0.04 in Snow Light Snow
12:43 PM 23.0 °F 8.7 °F 19.4 °F 86% 30.18 in 1.5 mi North 18.4 mph - 0.04 in Snow Light Snow
12:46 PM 23.0 °F 8.0 °F 17.6 °F 80% 30.18 in 2.0 mi North 20.7 mph - 0.04 in Snow Light Snow
12:54 PM 23.0 °F 9.6 °F 17.1 °F 78% 30.19 in 2.5 mi North 16.1 mph 25.3 mph 0.04 in Snow Light Snow
1:25 PM 23.0 °F 10.1 °F 17.6 °F 80% 30.17 in 1.5 mi North 15.0 mph - 0.02 in Snow Light Snow
1:29 PM 23.0 °F 10.6 °F 17.6 °F 80% 30.17 in 1.2 mi North 13.8 mph - 0.02 in Snow Light Snow
1:54 PM 21.9 °F 7.3 °F 16.0 °F 78% 30.19 in 1.5 mi North 18.4 mph 26.5 mph 0.03 in Snow Light Snow
1:59 PM 21.2 °F 7.8 °F 15.8 °F 80% 30.16 in 1.5 mi North 15.0 mph 26.5 mph 0.00 in Snow Light Snow
2:49 PM 21.2 °F 8.3 °F 15.8 °F 80% 30.18 in 3.0 mi North 13.8 mph 21.9 mph 0.00 in Snow Light Snow
2:54 PM 21.9 °F 10.4 °F 15.1 °F 75% 30.21 in 3.0 mi North 11.5 mph 21.9 mph 0.00 in Snow Light Snow
3:16 PM 21.2 °F 6.8 °F 15.8 °F 80% 30.20 in 5.0 mi North 17.3 mph - 0.00 in Snow Light Snow
3:39 PM 21.2 °F 6.0 °F 15.8 °F 80% 30.21 in 1.5 mi North 19.6 mph - 0.00 in Snow Light Snow
3:42 PM 21.2 °F 6.8 °F 14.0 °F 74% 30.20 in 1.2 mi North 17.3 mph - 0.00 in Snow Light Snow
3:54 PM 21.0 °F 9.3 °F 15.1 °F 78% 30.23 in 1.2 mi North 11.5 mph - 0.00 in Snow Light Snow
4:22 PM 21.2 °F 7.3 °F 15.8 °F 80% 30.21 in 1.5 mi North 16.1 mph - 0.00 in Snow Light Snow
4:36 PM 21.2 °F 7.8 °F 15.8 °F 80% 30.21 in 2.0 mi North 15.0 mph 24.2 mph 0.00 in Snow Light Snow
4:54 PM 21.0 °F 6.6 °F 14.0 °F 74% 30.22 in 10.0 mi North 17.3 mph - 0.00 in   Mostly Cloudy
5:54 PM 21.0 °F 8.1 °F 12.9 °F 71% 30.28 in 10.0 mi North 13.8 mph 18.4 mph N/A   Mostly Cloudy
6:13 PM 21.2 °F 8.3 °F 12.2 °F 68% 30.26 in 10.0 mi North 13.8 mph - N/A   Overcast
6:54 PM 21.0 °F 8.6 °F 12.0 °F 68% 30.31 in 10.0 mi North 12.7 mph - N/A   Mostly Cloudy
7:54 PM 19.9 °F 5.7 °F 8.1 °F 60% 30.32 in 10.0 mi North 16.1 mph - N/A   Scattered Clouds
8:54 PM 19.9 °F 6.7 °F 6.1 °F 55% 30.33 in 10.0 mi North 13.8 mph - N/A   Scattered Clouds
9:54 PM 18.0 °F 5.4 °F 3.9 °F 54% 30.35 in 10.0 mi North 11.5 mph - N/A   Scattered Clouds
10:54 PM 17.1 °F 3.6 °F 3.9 °F 56% 30.36 in 10.0 mi North 12.7 mph - N/A   Clear
11:54 PM 15.1 °F 4.2 °F 3.0 °F 59% 30.36 in 10.0 mi North 8.1 mph - N/A   Clear